Location: *
(46.1200°N, 11.2700°E)
Time: 23:28:29
(UTC+00:00)

Cosmos 2333 Rocket - Pass Details

Date: 02 March 2021
Orbit: 837 x 864 km, 70.8° (Epoch: 18 April)

Event Time Altitude Azimuth Distance (km) Brightness Sun altitude
Rises 18:59:01 0° 189° (S) 3,384 5.3 -20.8°
Reaches altitude 10° 19:01:30 10° 184° (S) 2,457 4.5 -21.3°
Maximum altitude 19:06:57 52° 110° (ESE) 1,046 2.2 -22.2°
Enters shadow 19:08:26 41° 65° (ENE) 1,212 2.6 -22.4°
Exits shadow 19:14:58 - 31° (NNE) 3,425 5.2 -23.5°
Sets 19:15:00 0° 31° (NNE) 3,435 5.2 -23.5°
